Location: Palo Alto
(37.4420°N, 122.1420°W)
Time: 14:34:46
(UTC-07:00)

ISS - All Passes

Search period start: 23 April 2017 00:00
Search period end: 03 May 2017 00:00
Orbit: 400 x 409 km, 51.6° (Epoch: 24 April)

Date Brightness Start Highest point End Pass type
(mag) Time Alt. Az. Time Alt. Az. Time Alt. Az.
23 Apr - 09:50:46 10° SW 09:53:59 61° SE 09:57:11 10° ENE daylight
23 Apr - 11:28:26 10° WNW 11:30:42 17° NNW 11:32:59 10° NNE daylight
23 Apr - 16:20:24 10° NNW 16:23:24 33° NNE 16:26:24 10° E daylight
23 Apr - 17:57:11 10° W 17:59:44 21° SW 18:02:18 10° S daylight
24 Apr - 08:58:59 10° SSW 09:01:49 28° SE 09:04:41 10° ENE daylight
24 Apr - 10:35:26 10° W 10:38:17 27° NNW 10:41:07 10° NNE daylight
24 Apr - 15:28:27 10° NNW 15:31:01 21° NNE 15:33:32 10° E daylight
24 Apr - 17:04:30 10° WNW 17:07:37 44° SW 17:10:44 10° SSE daylight
25 Apr - 08:07:55 10° SSE 08:09:45 14° SE 08:11:34 10° E daylight
25 Apr - 09:42:45 10° WSW 09:45:55 48° NW 09:49:05 10° NE daylight
25 Apr - 11:22:04 10° NW 11:23:01 11° NNW 11:23:59 10° N daylight
25 Apr - 14:36:41 10° NNW 14:38:31 14° NNE 14:40:20 10° ENE daylight
25 Apr - 16:12:09 10° NW 16:15:24 85° NE 16:18:40 10° SE daylight
26 Apr - 08:50:23 10° SW 08:53:37 81° SE 08:56:53 10° NE daylight
26 Apr - 10:28:26 10° WNW 10:30:27 15° NNW 10:32:29 10° NNE daylight
26 Apr - 13:45:27 10° N 13:45:55 10° NNE 13:46:24 10° NNE daylight
26 Apr - 15:19:58 10° NW 15:23:06 41° NE 15:26:12 10° ESE daylight
26 Apr - 16:57:09 10° W 16:59:19 17° SW 17:01:30 10° S daylight
27 Apr - 07:58:23 10° SSW 08:01:24 37° SE 08:04:26 10° ENE daylight
27 Apr - 09:35:17 10° W 09:37:57 23° NNW 09:40:38 10° NNE daylight
27 Apr - 14:27:57 10° NNW 14:30:40 24° NNE 14:33:24 10° E daylight
27 Apr - 16:04:13 10° WNW 16:07:11 33° SW 16:10:09 10° SSE daylight
28 Apr - 07:06:57 10° S 07:09:16 18° SE 07:11:34 10° E daylight
28 Apr - 08:42:26 10° WSW 08:45:31 39° NW 08:48:36 10° NE daylight
28 Apr - 13:36:04 10° NNW 13:38:10 16° NNE 13:40:17 10° ENE daylight
28 Apr - 15:11:44 10° NW 15:14:58 74° SW 15:18:12 10° SE daylight
29 Apr - 07:49:55 10° SW 07:53:09 78° NW 07:56:25 10° NE daylight
29 Apr - 09:28:22 10° NW 09:30:05 14° NNW 09:31:49 10° N daylight
29 Apr - 12:44:27 10° N 12:45:34 11° NNE 12:46:42 10° NE daylight
29 Apr - 14:19:28 10° NW 14:22:39 52° NE 14:25:50 10° ESE daylight
29 Apr - 15:57:10 10° W 15:58:46 13° SW 16:00:23 10° SSW daylight
30 Apr - 06:57:44 10° SSW 07:00:52 48° SE 07:04:02 10° ENE daylight
30 Apr - 08:35:03 10° WNW 08:37:31 20° NNW 08:40:00 10° NNE daylight
30 Apr - 13:27:21 10° NNW 13:30:14 28° NNE 13:33:06 10° E daylight
30 Apr - 15:03:52 10° WNW 15:06:38 26° SW 15:09:25 10° S daylight
01 May - 06:06:02 10° S 06:08:40 23° SE 06:11:19 10° ENE daylight
01 May - 07:42:03 10° W 07:45:02 32° NNW 07:48:00 10° NNE daylight
01 May - 12:35:21 10° NNW 12:37:43 18° NNE 12:40:04 10° ENE daylight
01 May - 14:11:13 10° WNW 14:14:25 56° SW 14:17:35 10° SE daylight
02 May - 05:15:22 10° SSE 05:16:31 11° SE 05:17:41 10° ESE visible
02 May - 06:49:23 10° WSW 06:52:36 60° NW 06:55:50 10° NE daylight
02 May - 08:28:14 10° NW 08:29:37 12° NNW 08:31:00 10° N daylight
02 May - 11:43:34 10° N 11:45:06 13° NNE 11:46:38 10° NE daylight
02 May - 13:18:51 10° NW 13:22:05 67° NE 13:25:18 10° ESE daylight
02 May - 14:57:48 10° WSW 14:58:07 10° SW 14:58:26 10° SW daylight
